DW1347 Weather Reports


time (UTC)temp
F
wind
direction
speed
knots
gust
knots
rain 1hr
in
rain 24hr
in
rain mn
in
humidity
%
barometer
mb
20260504060219 42 229 0.0 0.0 0.00 0.00 0.00 55 1020.9
20260504050646 43 195 0.0 0.0 0.00 0.00 0.00 54 1021.6
20260504050143 43 195 0.9 0.9 0.00 0.00 0.00 54 1021.1
20260504045640 43 176 0.0 0.9 0.00 0.00 0.00 54 1021.6
20260504045140 44 208 0.0 0.0 0.00 0.00 0.00 53 1021.3
20260504044638 44 204 0.0 0.0 0.00 0.00 0.00 54 1021.4
20260504044135 44 202 0.0 0.9 0.00 0.00 0.00 52 1021.6
20260504043632 44 207 0.0 0.0 0.00 0.00 0.00 52 1021.8
20260504043129 45 208 0.0 0.0 0.00 0.00 0.00 51 1021.4
20260504042626 45 188 0.9 0.9 0.00 0.00 0.00 51 1021.7
20260504042123 45 203 0.0 0.0 0.00 0.00 0.00 52 1021.7
20260504041619 46 220 0.0 0.0 0.00 0.00 0.00 51 1022.0
20260504041115 46 203 0.0 0.0 0.00 0.00 0.00 51 1021.8
20260504040613 45 198 0.0 0.9 0.00 0.00 0.00 51 1022.0
20260504040109 45 226 0.0 0.9 0.00 0.00 0.00 52 1021.7
20260504035606 46 200 0.9 0.9 0.00 0.00 0.00 52 1021.7
20260504035102 46 215 0.0 0.0 0.00 0.00 0.00 52 1021.8
20260504034601 46 179 1.7 1.7 0.00 0.00 0.00 52 1022.1
20260504034057 47 231 0.0 0.0 0.00 0.00 0.00 51 1022.0
20260504033555 47 222 0.0 0.0 0.00 0.00 0.00 50 1021.8
20260504033052 48 198 0.0 0.0 0.00 0.00 0.00 48 1021.8
20260504032549 47 186 0.9 0.9 0.00 0.00 0.00 48 1021.8
20260504032046 48 190 0.9 0.9 0.00 0.00 0.00 49 1021.8
20260504031543 49 211 0.0 0.0 0.00 0.00 0.00 47 1021.3
20260504031039 49 183 1.7 1.7 0.00 0.00 0.00 47 1022.0
20260504030537 48 199 0.9 0.9 0.00 0.00 0.00 48 1022.0
20260504030032 48 207 0.0 0.0 0.00 0.00 0.00 47 1021.8
20260504025530 49 205 0.0 0.0 0.00 0.00 0.00 48 1022.0
20260504025026 49 224 0.0 0.0 0.00 0.00 0.00 46 1021.8
20260504024523 49 176 1.7 1.7 0.00 0.00 0.00 46 1021.7
20260504024020 49 210 0.0 0.0 0.00 0.00 0.00 47 1021.7
20260504023517 50 209 0.9 0.9 0.00 0.00 0.00 48 1021.4
20260504023013 50 152 1.7 1.7 0.00 0.00 0.00 43 1021.8
20260504022509 50 197 0.0 0.9 0.00 0.00 0.00 44 1022.0
20260504022005 50 169 1.7 1.7 0.00 0.00 0.00 44 1021.7
20260504021503 51 220 0.0 0.0 0.00 0.00 0.00 45 1021.6
20260504021000 51 207 0.0 0.0 0.00 0.00 0.00 41 1021.8
20260504020456 52 214 0.0 0.0 0.00 0.00 0.00 42 1021.4
20260504015953 53 220 0.0 0.0 0.00 0.00 0.00 40 1021.6
20260504015449 53 204 0.0 0.0 0.00 0.00 0.00 39 1021.7
20260504014945 54 204 0.0 0.0 0.00 0.00 0.00 39 1021.4
20260504014441 54 209 0.0 0.0 0.00 0.00 0.00 39 1021.4
20260504013938 55 214 0.0 0.0 0.00 0.00 0.00 38 1021.3
20260504013437 55 208 0.0 0.0 0.00 0.00 0.00 37 1021.4
20260504012932 56 252 0.9 0.9 0.00 0.00 0.00 37 1021.1
20260504012431 56 281 2.6 5.2 0.00 0.00 0.00 36 1021.4
20260504011928 56 166 2.6 2.6 0.00 0.00 0.00 36 1021.1
20260504011425 57 218 0.0 0.0 0.00 0.00 0.00 35 1020.9
20260504010920 57 347 0.9 1.7 0.00 0.00 0.00 35 1020.9
20260504010417 57 224 0.9 1.7 0.00 0.00 0.00 35 1021.2
20260504005913 57 342 4.3 5.2 0.00 0.00 0.00 34 1020.9
20260504005410 57 307 1.7 1.7 0.00 0.00 0.00 34 1021.2
20260504004908 58 29 3.5 5.2 0.00 0.00 0.00 33 1021.3
20260504004405 58 274 1.7 1.7 0.00 0.00 0.00 33 1021.1
20260504003902 58 16 2.6 2.6 0.00 0.00 0.00 33 1021.2
20260504003358 59 356 1.7 2.6 0.00 0.00 0.00 32 1021.1
20260504002855 60 352 2.6 2.6 0.00 0.00 0.00 30 1021.1
20260504002352 60 231 0.0 0.0 0.00 0.00 0.00 30 1021.2
20260504001849 60 216 0.0 0.9 0.00 0.00 0.00 30 1021.1
20260504001347 59 237 0.9 1.7 0.00 0.00 0.00 31 1020.8
20260504000843 58 239 0.0 0.0 0.00 0.00 0.00 32 1021.1
20260504000341 59 117 9.6 12.2 0.00 0.00 0.00 31 1020.9
20260503235838 59 234 0.9 1.7 0.00 0.00 0.00 30 1021.1
20260503235335 60 132 2.6 4.3 0.00 0.00 0.00 29 1021.2
20260503234833 60 244 1.7 2.6 0.00 0.00 0.00 29 1021.1
20260503234330 60 232 2.6 2.6 0.00 0.00 0.00 28 1020.8
20260503233828 60 246 3.5 4.3 0.00 0.00 0.00 24 1020.8
20260503233323 60 225 0.9 0.9 0.00 0.00 0.00 29 1020.9
20260503232820 60 58 4.3 7.0 0.00 0.00 0.00 26 1020.4
20260503232318 61 148 1.7 2.6 0.00 0.00 0.00 25 1020.4
20260503231816 60 196 0.9 1.7 0.00 0.00 0.00 26 1020.7
20260503231312 61 226 0.0 0.0 0.00 0.00 0.00 26 1020.8
20260503230808 61 201 0.9 1.7 0.00 0.00 0.00 28 1020.8
20260503230306 61 229 0.0 0.9 0.00 0.00 0.00 26 1020.7
20260503225803 60 248 1.7 1.7 0.00 0.00 0.00 27 1021.1
20260503225258 60 245 0.9 1.7 0.00 0.00 0.00 26 1020.7
20260503224755 60 238 2.6 2.6 0.00 0.00 0.00 28 1020.9
20260503224253 61 225 0.9 0.9 0.00 0.00 0.00 27 1020.8
20260503223750 60 226 1.7 1.7 0.00 0.00 0.00 28 1020.8
20260503223248 60 236 1.7 1.7 0.00 0.00 0.00 28 1021.1
20260503222743 60 217 0.9 0.9 0.00 0.00 0.00 27 1021.1
20260503222242 60 219 2.6 2.6 0.00 0.00 0.00 27 1020.9
20260503221740 60 38 3.5 5.2 0.00 0.00 0.00 26 1021.1
20260503221237 60 252 4.3 5.2 0.00 0.00 0.00 27 1021.4
20260503220734 61 304 5.2 6.1 0.00 0.00 0.00 27 1021.4
20260503220231 60 33 4.3 5.2 0.00 0.00 0.00 27 1021.4
20260503215727 60 233 1.7 1.7 0.00 0.00 0.00 27 1021.4
20260503215224 60 305 4.3 5.2 0.00 0.00 0.00 26 1021.7
20260503214722 60 242 5.2 6.1 0.00 0.00 0.00 26 1021.7
20260503214219 60 349 7.8 9.6 0.00 0.00 0.00 25 1022.0
20260503213717 60 264 6.1 7.0 0.00 0.00 0.00 25 1021.7
20260503213213 61 228 1.7 2.6 0.00 0.00 0.00 24 1021.7
20260503212711 61 233 0.9 0.9 0.00 0.00 0.00 25 1022.0
20260503212208 61 21 5.2 6.1 0.00 0.00 0.00 23 1021.8
20260503211706 61 316 3.5 4.3 0.00 0.00 0.00 24 1021.8
20260503211202 62 229 6.1 7.0 0.00 0.00 0.00 25 1022.0
20260503210658 62 233 5.2 7.0 0.00 0.00 0.00 24 1022.3
20260503210155 61 318 3.5 4.3 0.00 0.00 0.00 24 1022.5
20260503205650 61 331 2.6 2.6 0.00 0.00 0.00 24 1022.3
20260503205146 61 287 3.5 5.2 0.00 0.00 0.00 24 1022.3
20260503204643 61 229 2.6 2.6 0.00 0.00 0.00 24 1022.5
20260503204141 60 238 3.5 4.3 0.00 0.00 0.00 24 1022.3
20260503203638 61 359 4.3 7.0 0.00 0.00 0.00 23 1022.5
20260503203135 62 354 7.8 8.7 0.00 0.00 0.00 23 1022.5
20260503202632 62 270 3.5 4.3 0.00 0.00 0.00 22 1022.6
20260503202130 61 274 1.7 1.7 0.00 0.00 0.00 23 1022.7
20260503201628 61 227 4.3 5.2 0.00 0.00 0.00 24 1022.6
20260503201125 62 32 3.5 5.2 0.00 0.00 0.00 23 1022.8
20260503200622 62 220 7.0 8.7 0.00 0.00 0.00 23 1022.7
20260503200118 64 10 6.1 7.8 0.00 0.00 0.00 23 1022.8
20260503195615 64 235 3.5 4.3 0.00 0.00 0.00 23 1022.7
20260503195111 63 242 3.5 4.3 0.00 0.00 0.00 23 1022.6
20260503194609 63 105 0.9 1.7 0.00 0.00 0.00 23 1023.0
20260503194103 62 251 0.9 0.9 0.00 0.00 0.00 25 1023.1
20260503193600 61 211 1.7 1.7 0.00 0.00 0.00 25 1023.3
20260503193055 62 224 5.2 6.1 0.00 0.00 0.00 26 1023.2
20260503192552 62 241 2.6 2.6 0.00 0.00 0.00 24 1023.3
20260503192048 64 221 3.5 4.3 0.00 0.00 0.00 25 1023.2
20260503191545 63 300 2.6 4.3 0.00 0.00 0.00 25 1023.3
20260503191042 63 313 0.9 1.7 0.00 0.00 0.00 24 1023.3
20260503190539 64 284 7.0 7.8 0.00 0.00 0.00 24 1023.3
20260503190037 63 260 4.3 5.2 0.00 0.00 0.00 25 1023.5
20260503185533 62 275 3.5 4.3 0.00 0.00 0.00 25 1024.0
20260503185033 61 68 1.7 1.7 0.00 0.00 0.00 25 1023.5
20260503184529 62 133 3.5 4.3 0.00 0.00 0.00 24 1023.8
20260503184026 62 238 3.5 4.3 0.00 0.00 0.00 28 1024.1
20260503183522 60 224 1.7 2.6 0.00 0.00 0.00 26 1024.1
20260503183019 60 222 5.2 7.0 0.00 0.00 0.00 27 1024.4
20260503182518 62 285 2.6 2.6 0.00 0.00 0.00 25 1024.2
20260503182015 62 107 3.5 4.3 0.00 0.00 0.00 25 1024.5
20260503181512 62 222 1.7 1.7 0.00 0.00 0.00 27 1024.5
20260503181008 61 213 2.6 2.6 0.00 0.00 0.00 27 1024.6
20260503180506 60 338 4.3 6.1 0.00 0.00 0.00 26 1024.4
20260503180003 60 353 3.5 4.3 0.00 0.00 0.00 26 1024.6
20260503175501 59 45 2.6 4.3 0.00 0.00 0.00 27 1024.7
20260503174956 59 225 0.9 1.7 0.00 0.00 0.00 28 1024.9
20260503174455 58 271 3.5 4.3 0.00 0.00 0.00 28 1024.9
20260503173950 58 6 4.3 6.1 0.00 0.00 0.00 27 1025.0
20260503173445 59 222 2.6 2.6 0.00 0.00 0.00 30 1025.1
20260503172943 58 216 0.9 0.9 0.00 0.00 0.00 29 1025.1
20260503172440 58 158 2.6 4.3 0.00 0.00 0.00 28 1025.4
20260503171937 58 222 0.9 1.7 0.00 0.00 0.00 31 1025.4
20260503171433 58 241 2.6 4.3 0.00 0.00 0.00 30 1025.4
20260503170931 58 234 4.3 6.1 0.00 0.00 0.00 29 1025.5
20260503170427 58 219 0.0 0.0 0.00 0.00 0.00 32 1025.5
20260503150814 51 262 3.5 5.2 0.00 0.00 0.00 39 1025.9
20260503150309 50 218 0.9 1.7 0.00 0.00 0.00 49 1026.0
20260503140234 42 225 0.0 0.0 0.00 0.00 0.00 61 1026.4
20260503131203 39 226 0.9 0.9 0.00 0.00 0.00 60 1026.1
20260503130701 37 195 0.9 0.9 0.00 0.00 0.00 58 1026.1
20260503130158 37 211 0.0 0.0 0.00 0.00 0.00 59 1026.0
20260503120118 35 222 0.0 0.0 0.00 0.00 0.00 62 1025.6
20260503110545 36 168 1.7 1.7 0.00 0.00 0.00 57 1025.4
20260503090432 36 217 0.0 0.0 0.00 0.00 0.00 61 1026.2
20260503081358 36 210 0.0 0.0 0.00 0.00 0.00 62 1026.4
20260503080855 35 200 0.0 0.0 0.00 0.00 0.00 62 1026.5
20260503080352 35 203 0.0 0.0 0.00 0.00 0.00 63 1026.5
20260503072829 35 231 0.0 0.0 0.00 0.00 0.00 60 1026.8
20260503072326 35 220 0.0 0.0 0.00 0.00 0.00 60 1027.1
20260503071822 35 176 0.9 0.9 0.00 0.00 0.00 59 1026.8
20260503071320 34 191 0.9 0.9 0.00 0.00 0.00 58 1026.6
20260503070815 34 190 0.9 0.9 0.00 0.00 0.00 58 1026.6
20260503070308 34 195 0.9 0.9 0.00 0.00 0.00 59 1026.9